Wetbulb
66.22 66.59 67.09 67.94 68.87 70.14 70.16 70.48 70.70 69.98 69.75 69.41 69.25 68.89 69.12 70.20 71.31 71.08 70.58 70.14 69.57 69.82
65.97 65.34 65.49 66.93 68.40 70.50 70.20 70.77 70.68 70.67 69.73 69.23 68.26 67.97 67.18 67.65 69.55 70.68 70.59 70.93 70.53 69.70
65.84 66.11 65.97 66.31 67.11 68.19 70.20 69.41 68.84 69.16 68.51 67.74 67.63 67.38 68.76 69.37 70.25 70.75 70.75 71.15 70.20 70.18
65.89 65.82 65.22 65.33 65.69 66.71 68.03 69.36 69.68 67.98 68.13 67.99 69.27 70.58 70.49 70.25 70.58 70.27 70.24 71.06 70.53 70.46
66.42 65.93 65.37 65.39 65.62 66.31 66.44 67.70 68.96 69.79 69.54 70.38 70.41 70.33 69.72 69.71 70.51 70.29 70.01 70.39 70.22 70.31
66.56 66.11 66.11 66.47 66.96 67.20 67.74 68.15 69.25 70.02 69.57 70.15 70.17 70.44 70.52 69.96 70.72 70.54 69.98 70.07 70.01 70.09
67.25 67.87 67.77 68.04 68.33 68.91 69.34 69.23 69.52 69.16 69.53 70.72 71.19 70.52 70.46 70.16 70.03 69.81 69.69 68.94 69.92 69.79
67.20 67.95 67.46 65.53 66.00 66.33 66.82 67.41 67.56 67.56 68.55 69.47 70.75 72.05 70.50 69.67 69.65 70.19 70.15 71.17 71.49 71.03
64.81 64.79 64.75 64.78 64.74 65.40 65.42 65.38 66.04 65.13 66.00 66.47 69.21 67.38 67.63 68.53 68.78 68.78 68.73 69.00 69.56 69.56
63.61 63.65 63.98 64.34 64.05 63.88 63.88 64.30 64.17 64.28 64.40 65.07 66.67 65.82 65.51 67.79 68.26 68.51 68.26 68.35 68.37 69.07
64.77 64.89 65.09 64.51 63.78 63.34 63.29 63.11 62.95 63.20 63.80 64.25 65.89 63.60 63.25 65.69 65.80 66.33 66.53 67.23 67.54 67.56
64.84 64.53 64.59 63.08 61.85 61.85 62.22 61.92 61.99 62.80 62.75 62.82 63.63 62.40 62.20 62.98 64.53 64.87 64.91 65.66 65.80 65.91
64.25 63.24 62.25 61.90 61.35 61.54 61.50 61.78 62.22 62.05 61.99 62.09 62.83 61.62 60.66 61.17 63.52 63.41 64.15 64.53 65.39 64.11
63.25 62.61 62.24 61.51 60.84 60.49 60.51 60.38 59.65 59.63 59.88 60.54 60.97 61.73 59.29 58.77 61.38 63.36 63.79 63.63 64.57 64.70
MSLP
1013.19 1013.32 1013.13 1012.83 1012.46 1011.85 1011.14 1010.51 1010.55 1010.52 1010.99 1011.61 1012.23 1012.25 1012.72 1012.92 1012.78 1012.54 1012.66 1012.68 1012.75 1012.87
1013.20 1013.32 1013.19 1012.78 1012.50 1012.13 1011.71 1011.32 1010.96 1011.03 1011.29 1011.46 1011.64 1011.73 1012.48 1012.51 1012.49 1012.27 1012.05 1011.99 1012.05 1012.25
1013.01 1013.15 1013.06 1012.89 1012.77 1012.35 1012.02 1011.49 1011.30 1011.24 1011.26 1011.47 1011.43 1011.95 1012.30 1012.24 1011.79 1011.61 1011.50 1011.57 1011.60 1011.66
1013.16 1013.17 1013.05 1012.96 1012.80 1012.50 1012.21 1011.86 1011.68 1011.34 1011.20 1011.34 1011.66 1011.93 1011.81 1011.33 1011.11 1010.93 1010.82 1010.85 1010.79 1010.92
1012.94 1012.95 1012.91 1012.84 1012.70 1012.67 1012.28 1011.89 1011.63 1011.58 1011.40 1011.17 1011.26 1011.60 1011.66 1011.13 1010.76 1010.40 1010.13 1010.19 1010.25 1010.31
1013.03 1012.90 1012.69 1012.59 1012.50 1012.42 1012.24 1011.91 1011.57 1011.23 1011.21 1011.09 1010.91 1010.82 1010.62 1010.53 1010.21 1009.87 1009.74 1009.98 1010.07 1009.81
1012.86 1012.78 1012.58 1012.35 1012.26 1012.21 1012.09 1012.00 1011.65 1011.42 1011.08 1010.75 1010.38 1010.25 1010.28 1010.35 1010.08 1009.73 1009.41 1009.20 1009.46 1009.58
1012.70 1012.69 1012.71 1012.49 1012.27 1012.11 1012.05 1011.97 1011.89 1011.60 1011.17 1010.74 1010.24 1010.03 1009.99 1009.95 1009.65 1009.58 1009.35 1008.99 1009.22 1009.21
1012.73 1012.85 1012.92 1012.84 1012.65 1012.26 1011.93 1011.86 1011.83 1011.65 1011.45 1011.04 1010.54 1010.13 1009.92 1009.78 1009.61 1009.40 1009.30 1009.12 1008.92 1008.78
1012.65 1012.95 1013.02 1012.98 1012.93 1012.61 1012.40 1012.03 1011.81 1011.65 1011.42 1011.05 1010.57 1010.15 1009.92 1009.63 1009.43 1009.23 1009.08 1008.96 1008.80 1008.70
1012.43 1012.64 1012.70 1012.69 1012.78 1012.58 1012.21 1012.07 1011.68 1011.34 1011.08 1010.90 1010.41 1009.92 1009.67 1009.32 1009.05 1009.06 1008.87 1008.78 1008.62 1008.54
1012.21 1012.31 1012.45 1012.46 1012.49 1012.33 1012.04 1011.82 1011.49 1011.02 1010.82 1010.71 1010.30 1009.82 1009.48 1009.03 1008.94 1008.78 1008.50 1008.26 1008.16 1008.21
1012.34 1012.39 1012.37 1012.30 1012.29 1012.04 1011.78 1011.64 1011.29 1010.89 1010.51 1010.22 1010.01 1009.50 1009.15 1008.88 1008.76 1008.48 1008.05 1007.82 1007.65 1007.56
1012.38 1012.49 1012.31 1012.32 1012.15 1011.94 1011.70 1011.44 1011.13 1010.80 1010.42 1010.05 1009.75 1009.27 1008.70 1008.44 1008.53 1008.16 1007.84 1007.52 1007.17 1007.17
Wind_Speed
3 1 2 3 5 6 5 5 2 5 7 5 3 3 4 6 6 5 7 8 6 4
3 2 3 5 4 3 4 4 4 2 3 3 3 2 6 4 8 6 8 8 7 7
2 0 1 3 5 4 2 0 1 2 4 4 2 3 7 8 8 6 5 5 6 5
2 1 3 3 4 4 4 4 3 2 4 4 4 5 5 6 6 5 5 5 6 6
4 3 3 5 5 5 6 6 6 5 4 5 4 5 6 7 4 5 4 5 4 6
3 3 5 5 6 5 4 5 5 6 6 6 7 6 5 7 6 3 2 3 5 5
3 4 3 3 4 5 5 5 6 3 5 6 8 5 6 7 6 6 5 6 7 6
0 2 3 3 3 3 5 5 4 6 7 6 4 2 3 5 3 5 6 6 6 7
3 1 2 4 5 5 5 5 6 6 6 6 4 8 6 5 4 4 4 5 6 6
1 2 2 2 4 5 6 4 5 6 6 7 6 8 9 8 4 4 5 5 5 5
0 2 2 3 3 4 2 4 3 5 6 6 7 11 11 11 6 5 6 6 6 5
4 3 1 1 4 5 3 4 4 4 6 6 8 11 13 10 6 6 7 6 6 5
1 2 3 4 5 3 3 5 5 6 6 8 8 10 12 9 4 6 4 5 6 9
3 5 5 5 3 4 5 5 6 5 6 7 6 9 14 11 4 5 4 4 5 4
Wind_Direction
107 71 317 304 316 322 311 279 164 141 138 157 137 71 334 317 265 231 233 225 199 209
83 7 335 349 348 352 354 6 29 100 162 166 102 75 277 250 260 241 233 232 215 215
170 140 17 360 354 343 26 320 238 167 165 181 122 249 251 244 233 224 234 226 211 222
266 267 340 322 324 322 308 261 252 212 173 182 207 231 274 263 260 240 244 229 196 218
241 285 302 308 301 312 293 281 265 239 236 180 195 220 253 282 277 255 274 269 216 226
255 270 302 321 320 313 311 305 286 261 255 239 225 226 235 258 278 161 125 266 270 238
287 296 304 322 349 355 356 4 357 334 267 254 265 243 232 232 234 221 213 243 249 241
249 331 342 10 13 21 15 358 1 354 345 339 327 296 263 269 251 226 236 240 242 247
171 194 322 347 348 348 350 355 349 346 336 330 317 332 321 285 283 288 271 268 277 270
221 279 315 338 345 346 337 331 331 327 328 323 311 316 314 302 295 284 275 273 281 288
175 75 25 39 2 326 299 307 296 298 305 302 293 295 295 292 285 276 271 265 266 270
131 140 113 333 310 292 287 300 293 291 293 288 286 284 287 291 280 264 258 252 251 249
209 232 247 259 285 273 288 284 299 309 305 293 291 299 283 282 260 269 274 271 256 222
266 270 272 272 271 283 304 315 319 322 315 311 303 306 303 295 255 239 264 264 275 234